星链-31717 (STARLINK-31717 )

导读

STARLINK-31717是美国太空探索技术公司星链星座的一员,于北京时间2024年4月2日8时发射入轨。星链计划旨在构建全球卫星互联网星座,为全球偏远地区、海洋等网络覆盖薄弱区域提供高速宽带服务,该卫星的发射延续了星链星座快速组网的节奏,进一步扩大了星座覆盖规模,提升了全球网络互联服务能力。

Basic Information
目录编号:
59385
目录名称:
STARLINK-31717
国际标识:
2024-062M
轨道中心:
EARTH
卫星名称:
星链-31717
卫星全名:
星链-31717 (STARLINK-31717 )
卫星状态:
在轨 (已飞行885 天)
发射日期:
2024-04-02 UTC
国别 :
美国 (US)
星等 :
--
Orbit Information
数据来源 国际轨道数据
星历时间: 2026-09-04T02:03:35+0800
9小时前
查看轨道信息
半长轴: 6840.873km
偏心率: 0.0001476
轨道倾角: 53.159°
近地点辐角 92.976°
升交点赤经 145.741°
平近点角 267.141°
近地点: 461.726km
远地点: 463.746km
周期: 93.848分钟
每日圈数: 15.343892
Detailed Information
固有亮度:
5
最大亮度:
0.3
卫星平台:
Starlink v2.0 mini
覆盖范围:
全球
运营商:
太空探索技术公司
运营商所在国:
美国
制造商(研发单位):
太空探索技术公司
制造商所在国:
美国
使用方式:
暂无
Satellite Introduction
星链(Starlink)计划是由太空探索技术公司(SpaceX)提出的一个巨型低轨卫星互联网星座项目,计划在2019年至2024年间在太空搭建由约1.2万颗卫星组成的“星链”网络,其中1584颗将部署在地球上空550千米处的近地轨道,并从2020年开始工作。该卫星仍在工作。
2D Orbit Map
3D Orbit Map
Orbit Altitude Analysis Chart
Orbit Inclination Analysis Chart
Orbit Comprehensive Analysis Chart
View Comprehensive Chart
Conjunction Data List
Event ID Objects TCA Miss Dist (km) Collision Risk Probability Collision Risk Index (CRI) Action
CDM_260828-003705-938506-296922
2026-08-28T
00:37:20+0000
0.545 km
远距离
5.480297E-5 中风险 0.7
CDM_260905-052605-256505-938521
2026-09-05T
05:26:51+0000
2.225 km
极远距离
1.74382E-6 低风险 0.4
CDM_260904-090305-299005-938521
2026-09-04T
09:03:52+0000
2.572 km
极远距离
1.419317E-6 低风险 0.38
CDM_260827-235005-938506-296923
2026-08-27T
23:50:27+0000
1.711 km
极远距离
1.409835E-6 低风险 0.38
CDM_260904-161205-811205-938521
2026-09-04T
16:12:23+0000
2.576 km
极远距离
1.201267E-6 低风险 0.37